Lid_Strength_Index
1 1 2 3 4 5 4 6 8 2 2 7 7 8 7 8 6 5 7 7 8 8 8 9 10 9 8 6 7 9 8 12 14 12 8 6 8 10 10 14 16 14 14 16
1 1 2 3 3 4 5 6 5 2 3 9 8 6 6 6 7 6 6 7 7 7 8 10 8 8 6 6 7 10 8 12 16 13 10 8 10 9 10 11 11 13 15 16
1 1 2 3 4 4 5 5 10 6 4 5 7 7 7 8 5 6 5 6 6 7 8 8 8 8 6 6 6 1 6 11 12 14 12 10 11 9 9 11 13 13 13 14
1 1 2 3 4 4 5 5 8 7 10 8 7 6 7 8 8 5 6 7 6 7 9 9 9 7 7 6 5 7 9 12 12 10 9 8 9 9 9 10 11 12 11 11
1 1 1 2 4 5 5 7 7 6 8 7 8 8 8 7 7 7 7 7 6 7 9 8 9 8 8 9 8 8 9 11 10 11 9 9 10 8 8 9 8 9 9 11
2 1 2 2 3 4 3 2 3 5 8 8 10 8 8 7 6 5 5 6 7 7 6 5 6 6 6 7 9 9 10 10 11 13 9 10 12 9 9 9 9 9 12 10
2 2 2 2 3 4 3 3 3 6 9 8 8 7 7 7 7 7 6 5 7 5 4 4 5 6 6 7 7 8 10 10 11 13 12 16 10 7 7 8 7 8 8 8
2 2 1 2 3 3 4 2 3 6 9 7 7 7 7 7 6 6 6 5 4 4 5 9 10 10 9 8 7 7 8 10 13 13 13 11 9 8 8 9 10 7 8 8
3 2 1 2 3 3 4 2 1 4 7 8 5 7 7 8 8 7 6 5 4 4 7 9 13 14 11 11 9 8 8 8 10 12 14 15 10 7 6 7 12 7 7 8
3 3 2 2 2 3 4 3 1 3 7 5 5 7 7 6 7 8 8 7 7 5 9 11 12 12 9 12 13 13 13 12 12 12 13 11 9 7 6 12 12 7 7 8
3 3 2 2 3 3 4 3 1 3 5 5 3 4 6 5 6 9 7 8 8 9 11 11 11 12 12 12 12 13 14 14 15 13 14 15 7 7 11 9 7 6 6 6
3 3 3 2 3 3 4 4 1 0 4 5 2 2 2 3 3 5 6 8 8 8 10 10 11 12 11 12 15 10 14 12 14 13 13 8 6 7 6 6 7 6 6 5
3 3 3 2 3 3 4 4 2 2 4 5 4 4 2 1 1 1 6 6 6 6 6 9 10 12 10 14 12 11 9 8 12 11 9 9 7 5 5 5 6 5 5 5
3 3 3 3 3 3 4 4 3 2 4 8 6 1 3 1 1 2 3 3 4 4 6 9 10 11 8 11 10 11 9 8 10 11 9 8 7 6 5 5 5 5 4 6
3 3 3 3 3 3 3 3 2 2 4 8 7 3 2 2 2 2 2 4 4 5 7 8 10 8 8 9 9 11 8 10 11 12 8 8 8 6 4 5 5 4 5 6
4 3 3 3 4 4 4 4 1 1 2 5 9 3 3 2 2 3 3 3 4 5 7 8 6 5 7 10 11 8 7 6 6 8 6 6 6 5 4 4 4 4 4 4
3 3 3 4 4 5 5 5 4 5 3 5 8 8 4 3 3 3 4 3 5 5 6 7 7 7 7 9 11 8 6 6 5 5 5 7 5 6 4 4 4 4 4 4
4 4 4 4 5 6 6 2 4 3 4 4 9 8 6 3 6 6 4 6 5 6 6 6 8 7 8 10 8 7 5 5 5 5 4 5 4 4 4 4 4 5 5 4
4 4 5 5 6 6 3 3 3 1 3 8 7 9 10 4 5 5 5 5 8 5 8 8 7 9 11 9 7 7 6 6 6 4 4 5 5 5 4 4 4 5 5 5
5 6 7 7 4 4 3 4 5 5 4 5 8 5 8 5 6 7 7 6 8 11 8 6 9 9 7 6 6 5 5 5 5 6 6 5 4 5 5 5 4 4 4 5
7 7 6 3 4 4 5 7 8 7 8 6 6 6 7 4 8 8 7 8 8 11 9 10 10 10 7 6 5 5 5 4 4 4 4 4 4 5 5 5 4 4 5 6
6 6 5 3 5 6 8 9 8 8 9 6 7 7 6 5 5 7 7 9 9 12 8 9 12 9 6 6 5 5 4 4 4 4 4 4 4 4 4 4 4 5 5 5
5 7 7 6 7 12 11 12 10 10 7 6 6 7 6 5 5 7 8 10 11 7 10 11 10 8 6 5 5 5 4 4 4 4 3 3 4 3 4 4 4 4 5 4
7 9 14 10 11 9 9 9 8 6 6 6 6 7 7 6 8 7 9 8 8 11 11 11 9 8 7 5 5 4 4 3 4 4 4 4 4 4 3 3 4 4 4 3
7 9 12 9 7 6 6 5 5 5 4 6 6 7 7 8 9 8 8 10 11 10 11 9 8 7 6 6 5 4 4 4 4 4 4 4 4 4 4 3 3 4 3 3
7 7 8 6 7 7 6 6 6 4 5 5 5 7 9 9 9 10 10 10 11 11 9 8 7 6 6 6 5 4 4 4 4 4 4 4 4 4 4 3 3 3 3 3
8 8 5 6 6 7 6 5 5 3 5 8 8 10 10 8 10 10 9 11 10 8 7 6 6 6 6 5 5 4 4 4 4 4 4 4 3 3 4 4 3 3 3 3